Location: Gellin
(53.4498°N, 14.3207°E)
Time: 22:28:03
(UTC+00:00)

Lacrosse 4 Rocket - Pass Details

Date: 03 March 2021
Orbit: 537 x 620 km, 68.0° (Epoch: 12 April)

Event Time Altitude Azimuth Distance (km) Brightness Sun altitude
Rises 19:12:11 0° 199° (SSW) 2,832 4.9 -22.4°
Reaches altitude 10° 19:14:27 10° 194° (SSW) 1,946 4.0 -22.8°
Enters shadow 19:14:34 11° 194° (SSW) 1,903 4.0 -22.8°
